[Date Prev][Date Next][Thread Prev][Thread Next] - [Date Index][Thread Index][Author Index]
STS-118 KEPS REVISED DAY 222
- Subject: [sarex] STS-118 KEPS REVISED DAY 222
- From: Arthur Rowe <azrowe80@xxxxxxxxxxx>
- Date: Fri, 10 Aug 2007 04:29:51 -0400
STS 118
1 32008U 07035A 07222.16836806 -.00263197 00000-0 -13754-2 0 93
2 32008 51.6300 185.1238 0018873 168.3605 10.5742 15.80439384 198
----
Sent via sarex@amsat.org. Opinions expressed are those of the author.
Not an AMSAT member? Join now to support the amateur satellite program!
Subscription settings: http://amsat.org/mailman/listinfo/sarex
AMSAT Home